Flag for Thailand Weather past 2 weeks in Hat Yai, Thailand

77 °F


Feels Like: 78 °F
Forecast: 78 / 89 °F
Wind: 2 mph from Southwest

Location: Hat Yai Airport

Current Time: Oct 8, 2015 at 1:11:46 AM

Latest Report: Oct 8, 2015 at 12:30 AM

Visibility: 2 mi

Pressure: 29.89 "Hg

Humidity: 100%

Dew point: 77 °F

Location of Hat YaiLocation

Historic Weather in Hat Yai — Graph


Hat Yai temperature yesterday

Maximum temperature yesterday: 91 °F (at 1:30 PM)
Minimum temperature yesterday: 73 °F (at 3:30 AM)
Average temperature yesterday: 80 °F

Past Weeks' High & Low Weather Summary

High91 °F (Sep 30, 1:30 PM)100% (Sep 23, 1:00 AM)29.98 "Hg (Sep 23, 1:00 AM)
Low73 °F (Sep 23, 1:00 AM)59% (Sep 24, 2:00 PM)29.71 "Hg (Sep 26, 3:30 PM)
Average81 °F85%29.85 "Hg
* Reported Midnight between Sep 22 and Sep 23 — Midnight between Oct 7 and Oct 8, Hat Yai, Weather by CustomWeather, © 2015

Note: Actual official high and low records may vary slightly from our data, if they occured in-between our weather recording intervals... More about our weather records


Hat Yai weather history for previous 24 hours

Time TempWeatherWind HumidityBarometerVisibility
12:00 AM
Thu, Oct 8
77 °FFog.3 mph100%29.92 "Hg2 mi
11:30 PM
Wed, Oct 7
79 °FFog.No wind94%29.92 "Hg2 mi
11:00 PM79 °FFog.3 mph94%29.92 "Hg2 mi
10:30 PM79 °FFog.2 mph94%29.95 "Hg2 mi
10:00 PM79 °FFog.2 mph94%29.92 "Hg2 mi
9:30 PM79 °FFog.No wind94%29.92 "Hg3 mi
9:00 PM79 °FFog.3 mph94%29.92 "Hg3 mi
8:30 PM79 °FFog.2 mph94%29.92 "Hg3 mi
8:00 PM79 °FFog.3 mph94%29.89 "Hg3 mi
7:30 PM79 °FFog.2 mph94%29.86 "Hg3 mi
7:00 PM79 °FFog.5 mph94%29.86 "Hg3 mi
6:30 PM81 °FFog.5 mph94%29.83 "Hg3 mi
6:00 PM81 °FFog.2 mph94%29.83 "Hg2 mi
5:30 PM81 °FFog.5 mph94%29.80 "Hg2 mi
5:00 PM81 °FFog.2 mph89%29.80 "Hg2 mi
4:30 PM81 °FFog.6 mph89%29.80 "Hg2 mi
4:00 PM79 °FHeavy rain. Broken clouds.10 mph94%29.77 "Hg1 mi
3:30 PM84 °FLight rain. Broken clouds.7 mph79%29.77 "Hg3 mi
3:00 PM91 °FPartly sunny.6 mph59%29.80 "Hg3 mi
2:30 PM91 °FPartly sunny.5 mph59%29.80 "Hg3 mi
2:00 PM91 °FPartly sunny.3 mph59%29.83 "Hg3 mi
1:30 PM91 °FPartly sunny.2 mph59%29.83 "Hg3 mi
1:00 PM90 °FPartly sunny.5 mph63%29.86 "Hg3 mi
12:30 PM90 °FPartly sunny.6 mph67%29.86 "Hg3 mi
12:00 PM90 °FFog.5 mph67%29.89 "Hg2 mi
11:30 AM88 °FFog.3 mph70%29.89 "Hg2 mi
11:00 AM86 °FFog.2 mph75%29.92 "Hg2 mi
10:30 AM86 °FFog.2 mph75%29.92 "Hg2 mi
10:00 AM84 °FFog.No wind79%29.95 "Hg2 mi
9:30 AM82 °FFog.No wind84%29.95 "Hg2 mi
9:00 AM81 °FFog.No wind89%29.92 "Hg1 mi
8:30 AM77 °FFog.No wind100%29.92 "Hg1 mi
8:00 AM75 °FFog.2 mph100%29.92 "Hg1 mi
7:30 AM75 °FFog.No wind100%29.92 "Hg1 mi
7:00 AM73 °FFog.No wind100%29.89 "Hg1 mi
6:30 AM73 °FFog.No wind100%29.89 "Hg0 mi
6:00 AM73 °FFog.3 mph100%29.89 "Hg1 mi
5:30 AM73 °FFog.No wind100%29.86 "Hg1 mi
5:00 AM73 °FFog.No wind100%29.86 "Hg1 mi
4:30 AM73 °FFog.No wind100%29.86 "Hg1 mi
4:00 AM73 °FFog.No wind100%29.86 "Hg1 mi
3:30 AM73 °FFog.2 mph100%29.83 "Hg1 mi
3:00 AM75 °FFog.No wind100%29.83 "Hg1 mi
2:30 AM75 °FFog.No wind100%29.86 "Hg1 mi
2:00 AM75 °FFog.2 mph100%29.86 "Hg1 mi
1:30 AM75 °FFog.2 mph100%29.86 "Hg1 mi
1:00 AM75 °FFog.No wind100%29.89 "Hg1 mi
Weather by CustomWeather, © 2015

See weather overviewHow to use our weather pages